Weather History for Kecskemet, Hungary

Change the Weather History Date:

Thursday, January 30, 2014

  Actual Average Record
Temperature  
Mean Temperature 23 °F -  
Max Temperature 34 °F - - ()
Min Temperature 12 °F - - ()
Degree Days  
Heating Degree Days 42    
Moisture  
Dew Point 22 °F    
Average Humidity 83    
Maximum Humidity 93    
Minimum Humidity 57    
Precipitation  
Precipitation 0.00 in - - ()
Sea Level Pressure  
Sea Level Pressure 30.15 in    
Wind  
Wind Speed 7 mph ()    
Max Wind Speed 18 mph    
Max Gust Speed 27 mph    
Visibility 2.1 miles    
Events Fog    
T = Trace of Precipitation, MM = Missing Value Source: Averaged Metar Reports

Daily Weather History Graph

Daily Weather History Graph

Search for Another Location

Airport:

Trip Planner

Search our weather history database for the weather conditions in past years. The results will help you decide how hot, cold, wet, or windy it might be!

Date:

Astronomy

Jan. 30, 2014 Rise Set
Actual Time 7:08 AM CET 4:40 PM CET
Civil Twilight 6:35 AM CET 5:13 PM CET
Nautical Twilight 5:59 AM CET 5:50 PM CET
Astronomical Twilight 5:23 AM CET 6:25 PM CET
Moon 6:18 AM CET (1/30) 4:33 PM CET (1/30)
Length of Visible Light 10h 37m
Length of Day
9h 32m
Waning Crescent, 0% of the Moon is Illuminated
Jan 30
Waning Crescent
Jan 30
New
Feb 6
First Quarter
Feb 15
Full
Feb 22
Last Quarter

Hourly Weather History & Observations

Time (CET) Temp. Windchill Dew Point Humidity Pressure Visibility Wind Dir Wind Speed Gust Speed Precip Events Conditions
12:00 AM 25 °F - 22 °F 83% 30.06 in 2 mi SE 8.9 mph - -   Mist
12:15 AM 24.8 °F 17.1 °F 21.2 °F 86% 30.04 in 1.9 mi SE 6.7 mph - N/A   Mostly Cloudy
12:45 AM 23.0 °F 14.9 °F 21.2 °F 93% 30.04 in 1.9 mi SE 6.7 mph - N/A   Scattered Clouds
1:00 AM 28 °F - 19 °F 59% 30.25 in 6 mi ESE 17.9 mph - -   Partly Cloudy
1:15 AM 23.0 °F 13.2 °F 21.2 °F 93% 30.04 in 0.6 mi SSE 8.9 mph - N/A   Mostly Cloudy
1:32 AM 21.2 °F 12.7 °F 19.4 °F 93% 30.06 in 0.4 mi SSE 6.7 mph - N/A Fog Light Freezing Fog
1:43 AM 19.4 °F 12.9 °F 17.6 °F 93% 30.06 in 0.2 mi SSE 4.5 mph - N/A Fog Light Freezing Fog
1:45 AM 19.4 °F 12.9 °F 17.6 °F 93% 30.06 in 0.2 mi SSE 4.5 mph - N/A Fog Light Freezing Fog
2:00 AM 20 °F - 18 °F 89% 30.11 in 0 mi SSE 4.5 mph - - Fog Fog
2:15 AM 17.6 °F - 15.8 °F 93% 30.06 in 0.1 mi SSE 2.2 mph - N/A Fog Light Freezing Fog
2:45 AM - - - N/A% - 1.2 mi SSE 6.7 mph - N/A Fog Light Freezing Fog
3:00 AM 14 °F - 12 °F 89% 30.12 in 0 mi ESE 2.2 mph - - Fog Heavy Fog
3:15 AM 15.8 °F - 14.0 °F 93% 30.06 in 0.1 mi Calm Calm - N/A Fog Light Freezing Fog
3:45 AM 15.8 °F - 12.2 °F 86% 30.09 in 0.1 mi Calm Calm - N/A Fog Light Freezing Fog
4:00 AM 15 °F - 13 °F 88% 30.14 in 0 mi Calm Calm - - Fog Heavy Fog
4:15 AM 14.0 °F - 12.2 °F 93% 30.09 in 0.1 mi ESE 2.2 mph - N/A Fog Light Freezing Fog
4:45 AM 14.0 °F - 10.4 °F 86% 30.09 in 0.1 mi Calm Calm - N/A Fog Light Freezing Fog
5:00 AM 14 °F - 11 °F 82% 30.15 in 0 mi Calm Calm - - Fog Heavy Fog
5:15 AM 12.2 °F - 10.4 °F 92% 30.09 in 0.1 mi ENE 2.2 mph - N/A Fog Light Freezing Fog
5:45 AM - - - N/A% - 2.5 mi East 6.7 mph - N/A   Mostly Cloudy
6:00 AM 12 °F - 10 °F 86% 30.16 in 0 mi ENE 2.2 mph - - Fog Heavy Fog
6:15 AM 14.0 °F - 12.2 °F 93% 30.12 in 0.1 mi East 2.2 mph - N/A Fog Light Freezing Fog
6:38 AM 15.8 °F 8.7 °F 14.0 °F 93% 30.09 in 0.1 mi East 4.5 mph - N/A Fog Light Freezing Fog
6:45 AM 15.8 °F 8.7 °F 14.0 °F 93% 30.12 in 0.1 mi East 4.5 mph - N/A Fog Light Freezing Fog
7:00 AM 17 °F - 14 °F 82% 30.16 in 0 mi East 4.5 mph - - Fog Fog
7:12 AM 15.8 °F 8.7 °F 14.0 °F 93% 30.12 in 0.2 mi ENE 4.5 mph - N/A Fog Light Freezing Fog
7:15 AM 17.6 °F 10.8 °F 14.0 °F 86% 30.12 in 0.3 mi ENE 4.5 mph - N/A Fog Light Freezing Fog
7:21 AM 17.6 °F 10.8 °F 14.0 °F 86% 30.12 in 0.4 mi ENE 4.5 mph - N/A Fog Light Freezing Fog
7:27 AM 17.6 °F 10.8 °F 15.8 °F 93% 30.12 in 0.5 mi ENE 4.5 mph - N/A Fog Light Freezing Fog
7:45 AM 19.4 °F 10.6 °F 17.6 °F 93% 30.12 in 0.6 mi East 6.7 mph - N/A Fog Light Freezing Fog
8:00 AM 20 °F - 18 °F 86% 30.17 in 1 mi East 6.7 mph - - Fog Fog
8:15 AM 21.2 °F 15.0 °F 19.4 °F 93% 30.12 in 0.6 mi East 4.5 mph - N/A   Mostly Cloudy
8:45 AM - - - N/A% - 1.9 mi East 6.7 mph - N/A   Mist
9:00 AM 25 °F - 23 °F 89% 30.19 in 1 mi East 4.5 mph - - Fog Light Fog
9:15 AM 26.6 °F 17.7 °F 24.8 °F 93% 30.15 in 1.2 mi ESE 8.9 mph - N/A   Mostly Cloudy
9:30 AM 28.4 °F 18.7 °F 26.6 °F 93% 30.15 in 1.9 mi ESE 11.2 mph - N/A   Scattered Clouds
9:45 AM 28.4 °F 18.7 °F 26.6 °F 93% 30.15 in 2.5 mi ESE 11.2 mph - N/A   Mostly Cloudy
10:00 AM 28 °F - 26 °F 89% 30.20 in 2 mi ESE 11.2 mph - -   Mist
10:15 AM 28.4 °F 19.9 °F 24.8 °F 86% 30.18 in 2.5 mi ESE 8.9 mph - N/A   Mostly Cloudy
10:45 AM 30.2 °F 19.9 °F 24.8 °F 80% 30.15 in 3.1 mi ESE 13.4 mph - N/A   Mostly Cloudy
11:00 AM 30 °F - 24 °F 70% 30.20 in 3 mi ESE 13.4 mph - -   Mist
11:15 AM 30.2 °F 20.9 °F 24.8 °F 80% 30.15 in 3.1 mi ESE 11.2 mph - N/A   Mostly Cloudy
11:45 AM - - - N/A% - 3.1 mi East 8.9 mph - N/A   Mostly Cloudy
12:00 PM 33 °F - 26 °F 67% 30.20 in 4 mi SE 11.2 mph - -   Mostly Cloudy
12:15 PM 33.8 °F 24.5 °F 26.6 °F 75% 30.15 in 4.3 mi ESE 13.4 mph - N/A   Unknown
12:45 PM 33.8 °F 24.5 °F 26.6 °F 75% 30.15 in 5.0 mi East 13.4 mph - N/A   Unknown
1:00 PM 33 °F - 26 °F 65% 30.19 in 5 mi East 13.4 mph - -   Partly Cloudy
1:15 PM 33.8 °F 24.5 °F 24.8 °F 70% 30.15 in - ESE 13.4 mph 24.6 mph N/A   Clear
1:45 PM 33.8 °F 25.4 °F 24.8 °F 70% 30.15 in - ESE 11.2 mph 22.4 mph N/A   Clear
2:00 PM 34 °F - 24 °F 57% 30.19 in 6 mi ESE 11.2 mph - -   Mostly Cloudy
2:15 PM 33.8 °F 25.4 °F 24.8 °F 70% 30.15 in - ESE 11.2 mph - N/A   Clear
2:45 PM - - - N/A% - 5.0 mi East 8.9 mph - N/A   Unknown
3:00 PM 34 °F - 26 °F 62% 30.19 in 5 mi East 11.2 mph - -   Mostly Cloudy
3:15 PM 33.8 °F 26.5 °F 26.6 °F 75% 30.15 in 3.7 mi East 8.9 mph - N/A   Unknown
3:45 PM 33.8 °F 26.5 °F 26.6 °F 75% 30.18 in 3.7 mi East 8.9 mph - N/A   Unknown
4:00 PM 34 °F - 27 °F 66% 30.20 in 4 mi East 8.9 mph - -   Mostly Cloudy
4:15 PM 33.8 °F 26.5 °F 26.6 °F 75% 30.15 in 4.3 mi East 8.9 mph - N/A   Unknown
4:45 PM 33.8 °F 26.5 °F 28.4 °F 81% 30.15 in 3.7 mi East 8.9 mph - N/A   Unknown
4:51 PM 33.8 °F 26.5 °F 26.6 °F 75% 30.15 in 3.1 mi East 8.9 mph - N/A   Mostly Cloudy
5:00 PM 33 °F - 28 °F 73% 30.20 in 4 mi East 8.9 mph - -   Mostly Cloudy
5:00 PM - - - N/A% - 3.1 mi East 8.9 mph - N/A   Mist
5:15 PM 32.0 °F 25.7 °F 28.4 °F 87% 30.18 in 2.5 mi East 6.7 mph - N/A   Scattered Clouds
5:45 PM - - - N/A% - 3.1 mi East 8.9 mph - N/A   Mostly Cloudy
6:00 PM 32 °F - 28 °F 79% 30.22 in 2 mi East 8.9 mph - -   Mist
6:15 PM 32.0 °F 24.3 °F 26.6 °F 80% 30.18 in 2.5 mi East 8.9 mph - N/A   Mostly Cloudy
6:45 PM 30.2 °F 22.1 °F 26.6 °F 86% 30.18 in 2.5 mi East 8.9 mph - N/A   Mostly Cloudy
7:00 PM 31 °F - 27 °F 80% 30.22 in 2 mi East 8.9 mph - -   Mist
7:15 PM 30.2 °F 22.1 °F 26.6 °F 86% 30.18 in 2.5 mi East 8.9 mph - N/A   Scattered Clouds
7:45 PM 30.2 °F 22.1 °F 26.6 °F 86% 30.18 in 2.5 mi East 8.9 mph - N/A   Mostly Cloudy
8:00 PM 30 °F - 27 °F 85% 30.22 in 2 mi East 8.9 mph - -   Mist
8:15 PM 30.2 °F 23.5 °F 26.6 °F 86% 30.18 in 2.5 mi East 6.7 mph - N/A   Scattered Clouds
8:45 PM - - - N/A% - 3.1 mi East 8.9 mph - N/A   Mostly Cloudy
9:00 PM 29 °F - 26 °F 86% 30.23 in 2 mi East 6.7 mph - -   Mist
9:15 PM 28.4 °F 21.4 °F 26.6 °F 93% 30.18 in 2.5 mi East 6.7 mph - N/A   Mostly Cloudy
9:45 PM 28.4 °F 21.4 °F 26.6 °F 93% 30.18 in 2.5 mi ESE 6.7 mph - N/A   Mostly Cloudy
10:00 PM 29 °F - 27 °F 88% 30.23 in 2 mi ESE 6.7 mph - -   Mist
10:15 PM 30.2 °F 23.5 °F 26.6 °F 86% 30.21 in 2.5 mi ESE 6.7 mph - N/A   Mostly Cloudy
10:21 PM 30.2 °F 23.5 °F 26.6 °F 86% 30.21 in 3.1 mi East 6.7 mph - N/A   Mostly Cloudy
10:45 PM 30.2 °F 22.1 °F 24.8 °F 80% 30.21 in 3.7 mi ESE 8.9 mph - N/A   Unknown
11:00 PM 30 °F - 24 °F 72% 30.25 in 4 mi ESE 8.9 mph - -   Mostly Cloudy
11:15 PM 30.2 °F 19.9 °F 21.2 °F 69% 30.21 in - SE 13.4 mph - N/A   Clear
11:45 PM - - - N/A% - 3.1 mi SE 8.9 mph - N/A   Mostly Cloudy
11:59 PM 28.4 °F 16.7 °F 19.4 °F 69% 30.21 in - SE 15.7 mph 26.8 mph N/A   Clear